Location: Abraham Lincoln Continuation High School
(33.9711°N, 117.3662°W)
Time: 04:40:33
(UTC+00:00)

Meteor 1-12 Rocket - Pass Details

Date: 21 September 2020
Orbit: 854 x 927 km, 81.2° (Epoch: 25 October)

Event Time Altitude Azimuth Distance (km) Brightness Sun altitude
Rises 02:36:49 0° 177° (S) 3,542 7.3 -10.9°
Reaches altitude 10° 02:39:19 10° 173° (S) 2,596 6.6 -11.4°
Maximum altitude 02:45:08 61° 95° (E) 1,019 4.3 -12.6°
Drops below altitude 10° 02:50:53 10° 16° (NNE) 2,565 6.7 -13.8°
Sets 02:53:21 0° 13° (NNE) 3,497 7.4 -14.3°
